| time (UTC) | temp F | wind direction | speed knots | gust knots | rain 1hr in | rain 24hr in | rain mn in | humidity % | barometer mb |
| 20260904191052 | 102 | 83 | 0.0 | 4.3 | 0.00 | 0.00 | 0.00 | 49 | 1015.6 |
| 20260904190552 | 102 | 94 | 0.9 | 4.3 | 0.00 | 0.00 | 0.00 | 49 | 1015.6 |
| 20260904190105 | 102 | 71 | 1.7 | 5.2 | 0.00 | 0.00 | 0.00 | 47 | 1015.7 |
| 20260904185551 | 102 | 91 | 1.7 | 6.1 | 0.00 | 0.00 | 0.00 | 49 | 1015.7 |
| 20260904185053 | 102 | 80 | 1.7 | 6.1 | 0.00 | 0.00 | 0.00 | 52 | 1015.7 |
| 20260904184559 | 102 | 83 | 0.9 | 4.3 | 0.00 | 0.00 | 0.00 | 49 | 1015.8 |
| 20260904184051 | 102 | 88 | 0.9 | 4.3 | 0.00 | 0.00 | 0.00 | 53 | 1015.8 |
| 20260904183550 | 102 | 146 | 1.7 | 4.3 | 0.00 | 0.00 | 0.00 | 51 | 1016.0 |
| 20260904183115 | 102 | 85 | 0.9 | 2.6 | 0.00 | 0.00 | 0.00 | 60 | 1016.0 |
| 20260904182551 | 101 | 162 | 0.9 | 2.6 | 0.00 | 0.00 | 0.00 | 52 | 1016.0 |
| 20260904182051 | 101 | 159 | 0.9 | 3.5 | 0.00 | 0.00 | 0.00 | 51 | 1016.1 |
| 20260904181600 | 101 | 126 | 0.9 | 3.5 | 0.00 | 0.00 | 0.00 | 56 | 1016.2 |
| 20260904181051 | 101 | 92 | 0.9 | 3.5 | 0.00 | 0.00 | 0.00 | 54 | 1016.2 |
| 20260904180551 | 101 | 147 | 0.9 | 3.5 | 0.00 | 0.00 | 0.00 | 51 | 1016.3 |
| 20260904180112 | 102 | 145 | 1.7 | 3.5 | 0.00 | 0.00 | 0.00 | 49 | 1016.5 |
| 20260904175552 | 102 | 96 | 0.0 | 2.6 | 0.00 | 0.00 | 0.00 | 55 | 1016.5 |
| 20260904175051 | 100 | 115 | 0.9 | 2.6 | 0.00 | 0.00 | 0.00 | 54 | 1016.5 |
| 20260904174610 | 100 | 165 | 0.0 | 3.5 | 0.00 | 0.00 | 0.00 | 52 | 1016.6 |
| 20260904174051 | 100 | 110 | 0.9 | 3.5 | 0.00 | 0.00 | 0.00 | 55 | 1016.6 |
| 20260904173551 | 100 | 121 | 1.7 | 4.3 | 0.00 | 0.00 | 0.00 | 55 | 1016.7 |
| 20260904173118 | 100 | 97 | 0.9 | 4.3 | 0.00 | 0.00 | 0.00 | 55 | 1016.6 |
| 20260904172554 | 100 | 107 | 0.9 | 3.5 | 0.00 | 0.00 | 0.00 | 54 | 1016.8 |
| 20260904172052 | 99 | 97 | 0.9 | 2.6 | 0.00 | 0.00 | 0.00 | 57 | 1016.9 |
| 20260904171606 | 98 | 0 | 0.9 | 4.3 | 0.00 | 0.00 | 0.00 | 55 | 1017.0 |
| 20260904171051 | 98 | 146 | 0.9 | 4.3 | 0.00 | 0.00 | 0.00 | 55 | 1017.1 |
| 20260904170554 | 98 | 98 | 1.7 | 3.5 | 0.00 | 0.00 | 0.00 | 55 | 1017.0 |
| 20260904170108 | 99 | 129 | 0.9 | 2.6 | 0.00 | 0.00 | 0.00 | 58 | 1017.1 |
| 20260904165553 | 98 | 75 | 0.9 | 3.5 | 0.00 | 0.00 | 0.00 | 56 | 1017.1 |
| 20260904165051 | 98 | 156 | 0.9 | 3.5 | 0.00 | 0.00 | 0.00 | 57 | 1017.1 |
| 20260904164604 | 99 | 162 | 0.9 | 3.5 | 0.00 | 0.00 | 0.00 | 56 | 1017.2 |
| 20260904164052 | 99 | 84 | 0.9 | 3.5 | 0.00 | 0.00 | 0.00 | 56 | 1017.2 |
| 20260904163551 | 99 | 74 | 0.0 | 3.5 | 0.00 | 0.00 | 0.00 | 59 | 1017.3 |
| 20260904163110 | 98 | 86 | 0.0 | 5.2 | 0.00 | 0.00 | 0.00 | 56 | 1017.2 |
| 20260904162552 | 98 | 79 | 0.9 | 5.2 | 0.00 | 0.00 | 0.00 | 59 | 1017.2 |
| 20260904162051 | 98 | 104 | 0.0 | 1.7 | 0.00 | 0.00 | 0.00 | 60 | 1017.3 |
| 20260904161616 | 98 | 53 | 0.0 | 4.3 | 0.00 | 0.00 | 0.00 | 60 | 1017.3 |
| 20260904161051 | 97 | 90 | 1.7 | 4.3 | 0.00 | 0.00 | 0.00 | 63 | 1017.3 |
| 20260904160551 | 97 | 178 | 0.9 | 2.6 | 0.00 | 0.00 | 0.00 | 61 | 1017.4 |
| 20260904160105 | 97 | 118 | 0.9 | 4.3 | 0.00 | 0.00 | 0.00 | 59 | 1017.4 |
| 20260904155551 | 96 | 102 | 1.7 | 4.3 | 0.00 | 0.00 | 0.00 | 58 | 1017.4 |
| 20260904155051 | 97 | 0 | 0.0 | 3.5 | 0.00 | 0.00 | 0.00 | 64 | 1017.4 |
| 20260904154603 | 96 | 124 | 0.9 | 3.5 | 0.00 | 0.00 | 0.00 | 60 | 1017.5 |
| 20260904154051 | 96 | 90 | 0.0 | 3.5 | 0.00 | 0.00 | 0.00 | 62 | 1017.4 |
| 20260904153551 | 95 | 116 | 0.9 | 3.5 | 0.00 | 0.00 | 0.00 | 63 | 1017.4 |
| 20260904153108 | 95 | 0 | 0.0 | 3.5 | 0.00 | 0.00 | 0.00 | 66 | 1017.4 |
| 20260904152551 | 95 | 138 | 1.7 | 3.5 | 0.00 | 0.00 | 0.00 | 66 | 1017.3 |
| 20260904152051 | 95 | 105 | 0.9 | 2.6 | 0.00 | 0.00 | 0.00 | 65 | 1017.3 |
| 20260904151602 | 95 | 84 | 0.9 | 1.7 | 0.00 | 0.00 | 0.00 | 67 | 1017.3 |
| 20260904151051 | 95 | 94 | 0.0 | 2.6 | 0.00 | 0.00 | 0.00 | 66 | 1017.2 |
| 20260904150551 | 94 | 137 | 0.9 | 3.5 | 0.00 | 0.00 | 0.00 | 68 | 1017.2 |
| 20260904150106 | 94 | 113 | 0.9 | 3.5 | 0.00 | 0.00 | 0.00 | 67 | 1017.2 |
| 20260904145553 | 94 | 0 | 0.9 | 3.5 | 0.00 | 0.00 | 0.00 | 66 | 1017.2 |
| 20260904145052 | 94 | 107 | 0.0 | 1.7 | 0.00 | 0.00 | 0.00 | 66 | 1017.1 |
| 20260904144621 | 93 | 98 | 0.0 | 2.6 | 0.00 | 0.00 | 0.00 | 70 | 1017.1 |
| 20260904144051 | 93 | 72 | 0.0 | 2.6 | 0.00 | 0.00 | 0.00 | 68 | 1017.2 |
| 20260904143552 | 93 | 0 | 0.9 | 2.6 | 0.00 | 0.00 | 0.00 | 68 | 1017.2 |
| 20260904143102 | 93 | 69 | 0.0 | 2.6 | 0.00 | 0.00 | 0.00 | 68 | 1017.2 |
| 20260904142552 | 93 | 59 | 0.0 | 1.7 | 0.00 | 0.00 | 0.00 | 67 | 1017.1 |
| 20260904142051 | 92 | 0 | 0.0 | 1.7 | 0.00 | 0.00 | 0.00 | 71 | 1017.1 |
| 20260904141604 | 91 | 141 | 0.0 | 1.7 | 0.00 | 0.00 | 0.00 | 72 | 1017.1 |
| 20260904141052 | 91 | 125 | 0.0 | 0.9 | 0.00 | 0.00 | 0.00 | 73 | 1017.1 |
| 20260904140552 | 91 | 114 | 0.0 | 0.9 | 0.00 | 0.00 | 0.00 | 72 | 1017.1 |
| 20260904140103 | 90 | 106 | 0.0 | 0.9 | 0.00 | 0.00 | 0.00 | 74 | 1017.3 |
| 20260904135552 | 89 | 77 | 0.0 | 0.9 | 0.00 | 0.00 | 0.00 | 76 | 1017.1 |
| 20260904135052 | 89 | 0 | 0.0 | 0.9 | 0.00 | 0.00 | 0.00 | 75 | 1017.1 |
| 20260904134608 | 89 | 82 | 0.0 | 0.9 | 0.00 | 0.00 | 0.00 | 75 | 1017.0 |
| 20260904134051 | 88 | 0 | 0.0 | 0.9 | 0.00 | 0.00 | 0.00 | 77 | 1017.0 |
| 20260904133551 | 87 | 72 | 0.0 | 0.9 | 0.00 | 0.00 | 0.00 | 78 | 1017.0 |
| 20260904133105 | 86 | 0 | 0.0 | 0.9 | 0.00 | 0.00 | 0.00 | 81 | 1017.0 |
| 20260904132552 | 85 | 0 | 0.0 | 0.9 | 0.00 | 0.00 | 0.00 | 82 | 1017.0 |
| 20260904132052 | 84 | 0 | 0.0 | 1.7 | 0.00 | 0.00 | 0.00 | 84 | 1016.9 |
| 20260904131605 | 82 | 0 | 0.0 | 1.7 | 0.00 | 0.00 | 0.00 | 86 | 1016.8 |
| 20260904131051 | 81 | 71 | 0.0 | 1.7 | 0.00 | 0.00 | 0.00 | 87 | 1016.9 |
| 20260904130551 | 80 | 70 | 0.0 | 1.7 | 0.00 | 0.00 | 0.00 | 89 | 1017.0 |
| 20260904125552 | 78 | 78 | 0.0 | 0.9 | 0.00 | 0.00 | 0.00 | 91 | 1016.9 |
| 20260904125052 | 77 | 0 | 0.0 | 0.9 | 0.00 | 0.00 | 0.00 | 93 | 1016.9 |
| 20260904124606 | 77 | 0 | 0.0 | 0.9 | 0.00 | 0.00 | 0.00 | 93 | 1016.9 |
| 20260904124057 | 76 | 77 | 0.0 | 0.9 | 0.00 | 0.00 | 0.00 | 94 | 1016.8 |
| 20260904123551 | 76 | 0 | 0.0 | 0.9 | 0.00 | 0.00 | 0.00 | 94 | 1016.8 |
| 20260904123102 | 75 | 0 | 0.0 | 0.9 | 0.00 | 0.00 | 0.00 | 95 | 1016.7 |
| 20260904122551 | 75 | 77 | 0.0 | 0.9 | 0.00 | 0.00 | 0.00 | 96 | 1016.7 |
| 20260904122050 | 75 | 0 | 0.0 | 0.9 | 0.00 | 0.00 | 0.00 | 96 | 1016.7 |
| 20260904121603 | 74 | 77 | 0.0 | 0.9 | 0.00 | 0.00 | 0.00 | 96 | 1016.6 |
| 20260904121056 | 74 | 0 | 0.0 | 0.0 | 0.00 | 0.00 | 0.00 | 96 | 1016.5 |
| 20260904120553 | 74 | 0 | 0.0 | 0.0 | 0.00 | 0.00 | 0.00 | 96 | 1016.4 |
| 20260904120118 | 74 | 0 | 0.0 | 0.9 | 0.00 | 0.00 | 0.00 | 96 | 1016.4 |
| 20260904115552 | 74 | 0 | 0.0 | 0.9 | 0.00 | 0.00 | 0.00 | 96 | 1016.3 |
| 20260904115052 | 74 | 0 | 0.0 | 0.9 | 0.00 | 0.00 | 0.00 | 96 | 1016.3 |
| 20260904114603 | 74 | 0 | 0.0 | 0.9 | 0.00 | 0.00 | 0.00 | 96 | 1016.3 |
| 20260904114052 | 74 | 0 | 0.0 | 0.9 | 0.00 | 0.00 | 0.00 | 96 | 1016.3 |
| 20260904113552 | 74 | 0 | 0.0 | 0.9 | 0.00 | 0.00 | 0.00 | 96 | 1016.1 |
| 20260904113107 | 74 | 0 | 0.0 | 0.9 | 0.00 | 0.00 | 0.00 | 96 | 1016.1 |
| 20260904112556 | 74 | 0 | 0.0 | 0.9 | 0.00 | 0.00 | 0.00 | 96 | 1016.0 |
| 20260904112056 | 74 | 77 | 0.0 | 0.9 | 0.00 | 0.00 | 0.00 | 97 | 1016.0 |
| 20260904111613 | 74 | 0 | 0.0 | 0.9 | 0.00 | 0.00 | 0.00 | 97 | 1016.0 |
| 20260904111052 | 74 | 77 | 0.0 | 0.9 | 0.00 | 0.00 | 0.00 | 97 | 1016.0 |
| 20260904110555 | 74 | 0 | 0.0 | 0.9 | 0.00 | 0.00 | 0.00 | 97 | 1016.0 |
| 20260904110106 | 74 | 0 | 0.0 | 0.9 | 0.00 | 0.00 | 0.00 | 97 | 1015.9 |
| 20260904105552 | 74 | 0 | 0.0 | 0.9 | 0.00 | 0.00 | 0.00 | 97 | 1015.9 |
| 20260904105052 | 74 | 0 | 0.0 | 0.9 | 0.00 | 0.00 | 0.00 | 97 | 1015.8 |
| 20260904104619 | 74 | 0 | 0.0 | 0.9 | 0.00 | 0.00 | 0.00 | 97 | 1015.9 |
| 20260904104051 | 74 | 0 | 0.0 | 0.9 | 0.00 | 0.00 | 0.00 | 97 | 1015.9 |
| 20260904103552 | 75 | 0 | 0.0 | 0.9 | 0.00 | 0.00 | 0.00 | 97 | 1015.8 |
| 20260904103106 | 75 | 0 | 0.0 | 0.9 | 0.00 | 0.00 | 0.00 | 97 | 1015.8 |
| 20260904102551 | 75 | 0 | 0.0 | 0.0 | 0.00 | 0.00 | 0.00 | 97 | 1015.8 |
| 20260904102051 | 75 | 0 | 0.0 | 0.0 | 0.00 | 0.00 | 0.00 | 97 | 1015.8 |
| 20260904101605 | 75 | 0 | 0.0 | 0.0 | 0.00 | 0.00 | 0.00 | 97 | 1015.8 |
| 20260904101051 | 75 | 0 | 0.0 | 0.0 | 0.00 | 0.00 | 0.00 | 96 | 1015.8 |
| 20260904100552 | 75 | 0 | 0.0 | 0.0 | 0.00 | 0.00 | 0.00 | 97 | 1015.8 |
| 20260904095552 | 75 | 0 | 0.0 | 0.0 | 0.00 | 0.00 | 0.00 | 97 | 1015.6 |
| 20260904095051 | 75 | 0 | 0.0 | 0.0 | 0.00 | 0.00 | 0.00 | 97 | 1015.7 |
| 20260904094613 | 75 | 0 | 0.0 | 0.0 | 0.00 | 0.00 | 0.00 | 96 | 1015.7 |
| 20260904094051 | 75 | 0 | 0.0 | 0.0 | 0.00 | 0.00 | 0.00 | 96 | 1015.6 |
| 20260904093554 | 75 | 0 | 0.0 | 0.0 | 0.00 | 0.00 | 0.00 | 96 | 1015.5 |
| 20260904093106 | 75 | 0 | 0.0 | 0.0 | 0.00 | 0.00 | 0.00 | 96 | 1015.6 |
| 20260904092551 | 75 | 0 | 0.0 | 0.0 | 0.00 | 0.00 | 0.00 | 96 | 1015.5 |
| 20260904092051 | 75 | 0 | 0.0 | 0.0 | 0.00 | 0.00 | 0.00 | 96 | 1015.5 |
| 20260904091604 | 75 | 0 | 0.0 | 0.0 | 0.00 | 0.00 | 0.00 | 96 | 1015.5 |
| 20260904091051 | 75 | 0 | 0.0 | 0.0 | 0.00 | 0.00 | 0.00 | 96 | 1015.5 |
| 20260904090553 | 75 | 0 | 0.0 | 0.0 | 0.00 | 0.00 | 0.00 | 96 | 1015.5 |
| 20260904090104 | 76 | 0 | 0.0 | 0.0 | 0.00 | 0.00 | 0.00 | 96 | 1015.5 |
| 20260904085551 | 76 | 0 | 0.0 | 0.0 | 0.00 | 0.00 | 0.00 | 96 | 1015.4 |
| 20260904085052 | 76 | 0 | 0.0 | 0.9 | 0.00 | 0.00 | 0.00 | 95 | 1015.3 |
| 20260904084603 | 76 | 0 | 0.0 | 0.9 | 0.00 | 0.00 | 0.00 | 95 | 1015.4 |
| 20260904084051 | 76 | 0 | 0.0 | 0.9 | 0.00 | 0.00 | 0.00 | 95 | 1015.4 |
| 20260904083553 | 76 | 0 | 0.0 | 0.0 | 0.00 | 0.00 | 0.00 | 95 | 1015.3 |
| 20260904083103 | 76 | 0 | 0.0 | 0.0 | 0.00 | 0.00 | 0.00 | 94 | 1015.2 |
| 20260904082552 | 76 | 0 | 0.0 | 0.9 | 0.00 | 0.00 | 0.00 | 94 | 1015.2 |
| 20260904082051 | 76 | 0 | 0.0 | 0.9 | 0.00 | 0.00 | 0.00 | 94 | 1015.2 |
| 20260904081642 | 76 | 0 | 0.0 | 0.0 | 0.00 | 0.00 | 0.00 | 94 | 1015.2 |
| 20260904081051 | 76 | 0 | 0.0 | 0.0 | 0.00 | 0.00 | 0.00 | 94 | 1015.1 |
| 20260904080551 | 76 | 0 | 0.0 | 0.0 | 0.00 | 0.00 | 0.00 | 94 | 1015.1 |
| 20260904080105 | 76 | 0 | 0.0 | 0.0 | 0.00 | 0.00 | 0.00 | 94 | 1015.2 |
| 20260904075553 | 76 | 0 | 0.0 | 0.0 | 0.00 | 0.00 | 0.00 | 94 | 1015.2 |
| 20260904075052 | 76 | 0 | 0.0 | 0.0 | 0.00 | 0.00 | 0.00 | 94 | 1015.1 |
| 20260904074617 | 77 | 0 | 0.0 | 0.9 | 0.00 | 0.00 | 0.00 | 94 | 1015.1 |
| 20260904074052 | 77 | 0 | 0.0 | 0.9 | 0.00 | 0.00 | 0.00 | 94 | 1015.1 |
| 20260904073552 | 77 | 0 | 0.0 | 0.9 | 0.00 | 0.00 | 0.00 | 94 | 1015.1 |
| 20260904073109 | 77 | 0 | 0.0 | 0.0 | 0.00 | 0.00 | 0.00 | 95 | 1015.2 |
| 20260904072552 | 77 | 0 | 0.0 | 0.0 | 0.00 | 0.00 | 0.00 | 94 | 1015.3 |
| 20260904072051 | 77 | 0 | 0.0 | 0.0 | 0.00 | 0.00 | 0.00 | 95 | 1015.3 |
| 20260904071601 | 77 | 0 | 0.0 | 0.0 | 0.00 | 0.00 | 0.00 | 95 | 1015.3 |
| 20260904071051 | 77 | 0 | 0.0 | 0.9 | 0.00 | 0.00 | 0.00 | 94 | 1015.2 |
| 20260904070552 | 77 | 0 | 0.0 | 0.9 | 0.00 | 0.00 | 0.00 | 94 | 1015.2 |
| 20260904070119 | 77 | 77 | 0.0 | 0.9 | 0.00 | 0.00 | 0.00 | 94 | 1015.2 |
| 20260904065551 | 77 | 77 | 0.0 | 1.7 | 0.00 | 0.00 | 0.00 | 94 | 1015.2 |
| 20260904065052 | 77 | 0 | 0.0 | 1.7 | 0.00 | 0.00 | 0.00 | 94 | 1015.3 |
| 20260904064603 | 77 | 0 | 0.0 | 0.9 | 0.00 | 0.00 | 0.00 | 94 | 1015.3 |
| 20260904064051 | 77 | 0 | 0.0 | 0.0 | 0.00 | 0.00 | 0.00 | 93 | 1015.2 |
| 20260904063551 | 78 | 0 | 0.0 | 0.0 | 0.00 | 0.00 | 0.00 | 93 | 1015.2 |
| 20260904063103 | 78 | 0 | 0.0 | 0.0 | 0.00 | 0.00 | 0.00 | 93 | 1015.2 |
| 20260904062552 | 78 | 0 | 0.0 | 0.9 | 0.00 | 0.00 | 0.00 | 92 | 1015.3 |
| 20260904062051 | 78 | 0 | 0.0 | 0.9 | 0.00 | 0.00 | 0.00 | 92 | 1015.2 |
| 20260904061606 | 78 | 0 | 0.0 | 0.0 | 0.00 | 0.00 | 0.00 | 93 | 1015.3 |
| 20260904061051 | 78 | 0 | 0.0 | 0.0 | 0.00 | 0.00 | 0.00 | 92 | 1015.3 |
| 20260904060552 | 78 | 0 | 0.0 | 0.0 | 0.00 | 0.00 | 0.00 | 92 | 1015.1 |
| 20260904060106 | 78 | 0 | 0.0 | 0.0 | 0.00 | 0.00 | 0.00 | 91 | 1015.1 |
| 20260904055551 | 79 | 0 | 0.0 | 0.0 | 0.00 | 0.00 | 0.00 | 91 | 1015.1 |
| 20260904055051 | 79 | 0 | 0.0 | 0.0 | 0.00 | 0.00 | 0.00 | 91 | 1015.2 |
| 20260904054608 | 79 | 0 | 0.0 | 0.0 | 0.00 | 0.00 | 0.00 | 90 | 1015.3 |
| 20260904054051 | 79 | 0 | 0.0 | 0.0 | 0.00 | 0.00 | 0.00 | 90 | 1015.4 |
| 20260904053551 | 79 | 0 | 0.0 | 0.0 | 0.00 | 0.00 | 0.00 | 90 | 1015.3 |
| 20260904053059 | 79 | 0 | 0.0 | 0.9 | 0.00 | 0.00 | 0.00 | 89 | 1015.2 |
| 20260904052552 | 80 | 0 | 0.0 | 0.9 | 0.00 | 0.00 | 0.00 | 88 | 1015.2 |
| 20260904052052 | 79 | 0 | 0.0 | 0.9 | 0.00 | 0.00 | 0.00 | 88 | 1015.2 |
| 20260904051607 | 79 | 0 | 0.0 | 0.0 | 0.00 | 0.00 | 0.00 | 88 | 1015.2 |
| 20260904051052 | 80 | 0 | 0.0 | 0.0 | 0.00 | 0.00 | 0.00 | 88 | 1015.2 |
| 20260904050553 | 80 | 0 | 0.0 | 0.0 | 0.00 | 0.00 | 0.00 | 88 | 1015.3 |
| 20260904050107 | 80 | 0 | 0.0 | 0.0 | 0.00 | 0.00 | 0.00 | 87 | 1015.3 |
| 20260904045551 | 80 | 0 | 0.0 | 0.0 | 0.00 | 0.00 | 0.00 | 88 | 1015.2 |
| 20260904045051 | 80 | 0 | 0.0 | 0.0 | 0.00 | 0.00 | 0.00 | 88 | 1015.3 |
| 20260904044602 | 80 | 0 | 0.0 | 0.0 | 0.00 | 0.00 | 0.00 | 88 | 1015.3 |
| 20260904044052 | 81 | 0 | 0.0 | 0.9 | 0.00 | 0.00 | 0.00 | 86 | 1015.4 |
| 20260904043551 | 81 | 0 | 0.0 | 0.9 | 0.00 | 0.00 | 0.00 | 86 | 1015.4 |
| 20260904043119 | 81 | 0 | 0.0 | 0.0 | 0.00 | 0.00 | 0.00 | 86 | 1015.3 |
| 20260904042552 | 81 | 0 | 0.0 | 0.0 | 0.00 | 0.00 | 0.00 | 85 | 1015.3 |
| 20260904042053 | 81 | 0 | 0.0 | 0.0 | 0.00 | 0.00 | 0.00 | 84 | 1015.4 |
| 20260904041606 | 81 | 0 | 0.0 | 0.0 | 0.00 | 0.00 | 0.00 | 82 | 1015.4 |
| 20260904041051 | 81 | 0 | 0.0 | 0.0 | 0.00 | 0.00 | 0.00 | 82 | 1015.4 |
| 20260904040551 | 81 | 0 | 0.0 | 0.0 | 0.00 | 0.00 | 0.00 | 82 | 1015.3 |
| 20260904040107 | 82 | 0 | 0.0 | 0.0 | 0.00 | 0.00 | 0.00 | 82 | 1015.4 |
| 20260904035551 | 82 | 0 | 0.0 | 0.0 | 0.00 | 0.00 | 0.00 | 81 | 1015.5 |
| 20260904035051 | 82 | 0 | 0.0 | 0.0 | 0.00 | 0.00 | 0.00 | 81 | 1015.5 |
| 20260904034605 | 82 | 0 | 0.0 | 0.0 | 0.00 | 0.00 | 0.00 | 80 | 1015.4 |
| 20260904034051 | 83 | 0 | 0.0 | 0.9 | 0.00 | 0.00 | 0.00 | 80 | 1015.5 |
| 20260904033552 | 83 | 0 | 0.0 | 2.6 | 0.00 | 0.00 | 0.00 | 79 | 1015.5 |
| 20260904033103 | 83 | 0 | 0.0 | 2.6 | 0.00 | 0.00 | 0.00 | 79 | 1015.5 |
| 20260904032550 | 83 | 56 | 0.0 | 2.6 | 0.00 | 0.00 | 0.00 | 79 | 1015.5 |
| 20260904032050 | 84 | 0 | 0.0 | 1.7 | 0.00 | 0.00 | 0.00 | 79 | 1015.5 |
| 20260904031603 | 83 | 0 | 0.0 | 2.6 | 0.00 | 0.00 | 0.00 | 79 | 1015.6 |
| 20260904031051 | 83 | 0 | 0.0 | 2.6 | 0.00 | 0.00 | 0.00 | 79 | 1015.5 |
| 20260904030551 | 83 | 0 | 0.9 | 4.3 | 0.00 | 0.00 | 0.00 | 79 | 1015.6 |
| 20260904025551 | 83 | 57 | 0.0 | 0.9 | 0.00 | 0.00 | 0.00 | 81 | 1015.7 |
| 20260904025052 | 83 | 0 | 0.0 | 0.0 | 0.00 | 0.00 | 0.00 | 81 | 1015.5 |
| 20260904024608 | 83 | 0 | 0.0 | 0.0 | 0.00 | 0.00 | 0.00 | 80 | 1015.5 |
| 20260904024054 | 83 | 0 | 0.0 | 0.0 | 0.00 | 0.00 | 0.00 | 80 | 1015.5 |
| 20260904023551 | 83 | 0 | 0.0 | 0.9 | 0.00 | 0.00 | 0.00 | 80 | 1015.4 |
| 20260904023103 | 83 | 0 | 0.0 | 0.9 | 0.00 | 0.00 | 0.00 | 79 | 1015.4 |
| 20260904022551 | 83 | 0 | 0.0 | 0.9 | 0.00 | 0.00 | 0.00 | 79 | 1015.3 |
| 20260904022052 | 83 | 0 | 0.0 | 0.0 | 0.00 | 0.00 | 0.00 | 81 | 1015.2 |
| 20260904021602 | 84 | 0 | 0.0 | 0.0 | 0.00 | 0.00 | 0.00 | 81 | 1015.2 |
| 20260904021051 | 84 | 0 | 0.0 | 0.0 | 0.00 | 0.00 | 0.00 | 81 | 1015.2 |
| 20260904020552 | 84 | 0 | 0.0 | 0.9 | 0.00 | 0.00 | 0.00 | 82 | 1015.1 |
| 20260904020104 | 85 | 0 | 0.0 | 0.9 | 0.00 | 0.00 | 0.00 | 81 | 1015.1 |
| 20260904015551 | 85 | 0 | 0.0 | 0.9 | 0.00 | 0.00 | 0.00 | 81 | 1015.0 |
| 20260904015051 | 85 | 91 | 0.0 | 0.9 | 0.00 | 0.00 | 0.00 | 81 | 1014.9 |
| 20260904014645 | 85 | 0 | 0.0 | 0.9 | 0.00 | 0.00 | 0.00 | 79 | 1014.9 |
| 20260904014052 | 86 | 0 | 0.0 | 0.9 | 0.00 | 0.00 | 0.00 | 79 | 1014.9 |
| 20260904013551 | 86 | 0 | 0.0 | 0.9 | 0.00 | 0.00 | 0.00 | 78 | 1014.9 |
| 20260904013103 | 86 | 0 | 0.0 | 0.9 | 0.00 | 0.00 | 0.00 | 77 | 1014.7 |
| 20260904012551 | 86 | 0 | 0.0 | 0.0 | 0.00 | 0.00 | 0.00 | 75 | 1014.7 |
| 20260904012051 | 86 | 0 | 0.0 | 0.0 | 0.00 | 0.00 | 0.00 | 76 | 1014.7 |
| 20260904011603 | 86 | 0 | 0.0 | 0.0 | 0.00 | 0.00 | 0.00 | 74 | 1014.7 |
| 20260904011054 | 87 | 0 | 0.0 | 0.0 | 0.00 | 0.00 | 0.00 | 74 | 1014.6 |
| 20260904010551 | 87 | 0 | 0.0 | 0.0 | 0.00 | 0.00 | 0.00 | 73 | 1014.5 |
| 20260904005551 | 88 | 0 | 0.0 | 0.0 | 0.00 | 0.00 | 0.00 | 71 | 1014.5 |
| 20260904005052 | 88 | 0 | 0.0 | 0.9 | 0.00 | 0.00 | 0.00 | 70 | 1014.4 |
| 20260904004604 | 89 | 0 | 0.0 | 0.9 | 0.00 | 0.00 | 0.00 | 70 | 1014.5 |
| 20260904004052 | 89 | 0 | 0.0 | 0.9 | 0.00 | 0.00 | 0.00 | 69 | 1014.5 |
| 20260904003551 | 89 | 0 | 0.0 | 1.7 | 0.00 | 0.00 | 0.00 | 67 | 1014.4 |
| 20260904003102 | 90 | 0 | 0.0 | 1.7 | 0.00 | 0.00 | 0.00 | 67 | 1014.4 |
| 20260904002552 | 91 | 86 | 0.9 | 1.7 | 0.00 | 0.00 | 0.00 | 64 | 1014.5 |
| 20260904002052 | 92 | 84 | 0.0 | 0.9 | 0.00 | 0.00 | 0.00 | 61 | 1014.4 |
| 20260904001601 | 92 | 0 | 0.0 | 0.9 | 0.00 | 0.00 | 0.00 | 61 | 1014.4 |
| 20260904001051 | 93 | 0 | 0.0 | 1.7 | 0.00 | 0.00 | 0.00 | 60 | 1014.3 |
| 20260904000551 | 93 | 0 | 0.0 | 1.7 | 0.00 | 0.00 | 0.00 | 59 | 1014.3 |
| 20260904000138 | 94 | 75 | 0.0 | 1.7 | 0.00 | 0.00 | 0.00 | 58 | 1014.3 |
| 20260903235551 | 94 | 83 | 0.9 | 2.6 | 0.00 | 0.00 | 0.00 | 58 | 1014.2 |
| 20260903235051 | 95 | 49 | 0.9 | 2.6 | 0.00 | 0.00 | 0.00 | 58 | 1014.2 |
| 20260903234603 | 96 | 84 | 0.0 | 0.9 | 0.00 | 0.00 | 0.00 | 53 | 1014.2 |
| 20260903234054 | 97 | 0 | 0.0 | 0.9 | 0.00 | 0.00 | 0.00 | 52 | 1014.2 |
| 20260903233551 | 97 | 0 | 0.0 | 0.9 | 0.00 | 0.00 | 0.00 | 51 | 1014.2 |
| 20260903233102 | 98 | 300 | 0.0 | 2.6 | 0.00 | 0.00 | 0.00 | 51 | 1014.2 |
| 20260903232551 | 98 | 0 | 0.0 | 2.6 | 0.00 | 0.00 | 0.00 | 49 | 1014.2 |
| 20260903232055 | 98 | 299 | 0.9 | 2.6 | 0.00 | 0.00 | 0.00 | 48 | 1014.1 |
| 20260903231618 | 98 | 68 | 0.0 | 2.6 | 0.00 | 0.00 | 0.00 | 48 | 1014.1 |
| 20260903231051 | 98 | 72 | 0.9 | 2.6 | 0.00 | 0.00 | 0.00 | 48 | 1014.1 |
| 20260903230551 | 98 | 94 | 0.9 | 2.6 | 0.00 | 0.00 | 0.00 | 48 | 1014.0 |
| 20260903230111 | 98 | 83 | 0.9 | 2.6 | 0.00 | 0.00 | 0.00 | 49 | 1013.8 |
| 20260903225554 | 98 | 78 | 0.9 | 2.6 | 0.00 | 0.00 | 0.00 | 48 | 1013.9 |
| 20260903225052 | 99 | 80 | 0.0 | 2.6 | 0.00 | 0.00 | 0.00 | 48 | 1013.9 |
| 20260903224603 | 100 | 253 | 0.9 | 2.6 | 0.00 | 0.00 | 0.00 | 47 | 1013.9 |
| 20260903224055 | 100 | 106 | 0.9 | 3.5 | 0.00 | 0.00 | 0.00 | 46 | 1013.8 |
| 20260903223552 | 101 | 82 | 0.9 | 4.3 | 0.00 | 0.00 | 0.00 | 45 | 1013.8 |
| 20260903223103 | 102 | 243 | 0.9 | 4.3 | 0.00 | 0.00 | 0.00 | 45 | 1013.8 |
| 20260903222555 | 102 | 44 | 0.9 | 3.5 | 0.00 | 0.00 | 0.00 | 44 | 1013.8 |
| 20260903222051 | 102 | 86 | 0.9 | 5.2 | 0.00 | 0.00 | 0.00 | 46 | 1013.7 |
| 20260903221606 | 102 | 91 | 0.9 | 5.2 | 0.00 | 0.00 | 0.00 | 45 | 1013.8 |
| 20260903221051 | 102 | 63 | 1.7 | 5.2 | 0.00 | 0.00 | 0.00 | 45 | 1013.8 |
| 20260903220552 | 101 | 78 | 0.9 | 3.5 | 0.00 | 0.00 | 0.00 | 46 | 1013.7 |
| 20260903220116 | 102 | 65 | 0.9 | 4.3 | 0.00 | 0.00 | 0.00 | 46 | 1013.8 |
| 20260903215551 | 102 | 79 | 0.9 | 5.2 | 0.00 | 0.00 | 0.00 | 45 | 1013.7 |
| 20260903215052 | 102 | 9 | 1.7 | 5.2 | 0.00 | 0.00 | 0.00 | 46 | 1013.8 |
| 20260903214606 | 103 | 338 | 0.9 | 6.1 | 0.00 | 0.00 | 0.00 | 46 | 1013.7 |
| 20260903214051 | 102 | 113 | 1.7 | 6.1 | 0.00 | 0.00 | 0.00 | 48 | 1013.8 |
| 20260903213552 | 102 | 68 | 0.9 | 4.3 | 0.00 | 0.00 | 0.00 | 45 | 1013.8 |
| 20260903213105 | 103 | 82 | 0.9 | 4.3 | 0.00 | 0.00 | 0.00 | 47 | 1013.8 |
| 20260903212551 | 102 | 80 | 0.9 | 4.3 | 0.00 | 0.00 | 0.00 | 46 | 1014.0 |
| 20260903212051 | 102 | 86 | 0.9 | 4.3 | 0.00 | 0.00 | 0.00 | 46 | 1014.0 |
| 20260903211603 | 102 | 86 | 1.7 | 4.3 | 0.00 | 0.00 | 0.00 | 45 | 1014.0 |
| 20260903211052 | 103 | 84 | 1.7 | 4.3 | 0.00 | 0.00 | 0.00 | 47 | 1014.0 |
| 20260903210552 | 103 | 356 | 0.9 | 2.6 | 0.00 | 0.00 | 0.00 | 47 | 1014.1 |
| 20260903205554 | 102 | 164 | 0.0 | 4.3 | 0.00 | 0.00 | 0.00 | 46 | 1014.3 |
| 20260903205051 | 102 | 30 | 0.9 | 4.3 | 0.00 | 0.00 | 0.00 | 46 | 1014.5 |
| 20260903204608 | 102 | 67 | 0.9 | 6.1 | 0.00 | 0.00 | 0.00 | 45 | 1014.5 |
| 20260903204051 | 102 | 68 | 1.7 | 6.1 | 0.00 | 0.00 | 0.00 | 46 | 1014.5 |
| 20260903203555 | 102 | 72 | 1.7 | 5.2 | 0.00 | 0.00 | 0.00 | 46 | 1014.6 |
| 20260903203102 | 102 | 83 | 1.7 | 5.2 | 0.00 | 0.00 | 0.00 | 47 | 1014.6 |
| 20260903202555 | 102 | 115 | 1.7 | 3.5 | 0.00 | 0.00 | 0.00 | 47 | 1014.7 |
| 20260903202051 | 101 | 105 | 1.7 | 3.5 | 0.00 | 0.00 | 0.00 | 47 | 1014.6 |
| 20260903201607 | 101 | 90 | 0.9 | 3.5 | 0.00 | 0.00 | 0.00 | 49 | 1014.8 |
| 20260903201052 | 102 | 70 | 0.9 | 3.5 | 0.00 | 0.00 | 0.00 | 46 | 1014.9 |
| 20260903200552 | 102 | 91 | 1.7 | 3.5 | 0.00 | 0.00 | 0.00 | 48 | 1015.0 |
| 20260903200108 | 102 | 84 | 1.7 | 5.2 | 0.00 | 0.00 | 0.00 | 48 | 1015.0 |
| 20260903195555 | 103 | 102 | 0.9 | 5.2 | 0.00 | 0.00 | 0.00 | 47 | 1015.0 |
| 20260903195051 | 102 | 59 | 1.7 | 5.2 | 0.00 | 0.00 | 0.00 | 49 | 1015.1 |
| 20260903194601 | 102 | 57 | 0.0 | 3.5 | 0.00 | 0.00 | 0.00 | 52 | 1015.2 |
| 20260903194052 | 101 | 83 | 1.7 | 3.5 | 0.00 | 0.00 | 0.00 | 50 | 1015.3 |
| 20260903193551 | 101 | 56 | 0.9 | 4.3 | 0.00 | 0.00 | 0.00 | 51 | 1015.3 |
| 20260903193101 | 100 | 27 | 0.9 | 5.2 | 0.00 | 0.00 | 0.00 | 48 | 1015.4 |
| 20260903192552 | 101 | 86 | 1.7 | 5.2 | 0.00 | 0.00 | 0.00 | 48 | 1015.5 |
| 20260903192052 | 101 | 86 | 0.9 | 3.5 | 0.00 | 0.00 | 0.00 | 49 | 1015.6 |
| 20260903191607 | 102 | 70 | 0.9 | 3.5 | 0.00 | 0.00 | 0.00 | 50 | 1015.6 |